Location: Newark
(17.1458°N, 89.0741°W)
Time: 01:19:31
(UTC+00:00)

Hubble Space Telescope - Visible Passes

Search period start: 19 August 2019 00:00
Search period end: 29 August 2019 00:00
Orbit: 536 x 540 km, 28.5° (Epoch: 17 August)

Date Brightness Start Highest point End Pass type
(mag) Time Alt. Az. Time Alt. Az. Time Alt. Az.
19 Aug 3.1 01:11:06 10° NW 01:13:45 16° N 01:16:23 10° NE visible
19 Aug 3.8 02:52:15 10° NW 02:52:47 13° NW 02:52:47 13° NW visible
20 Aug 3.1 01:00:42 10° NW 01:03:22 16° N 01:06:02 10° NE visible
20 Aug 3.5 02:41:38 10° NW 02:42:43 16° NW 02:42:43 16° NW visible
21 Aug 3.0 00:50:13 10° NW 00:52:59 17° N 00:55:45 10° NE visible
21 Aug 3.1 02:31:00 10° NW 02:32:38 20° NNW 02:32:38 20° NNW visible
22 Aug 2.9 00:39:40 10° NW 00:42:36 18° N 00:45:31 10° NE visible
22 Aug 2.7 02:20:22 10° NW 02:22:35 27° NNW 02:22:35 27° NNW visible
23 Aug 2.0 02:09:45 10° NW 02:12:33 37° NNW 02:12:33 37° NNW visible
24 Aug 1.3 01:59:10 10° WNW 02:02:33 55° NNW 02:02:33 55° NNW visible
25 Aug 0.7 01:48:37 10° WNW 01:52:37 84° WNW 01:52:37 84° WNW visible
26 Aug 0.8 01:38:07 10° WNW 01:42:12 65° SSW 01:42:43 58° SSE visible
27 Aug 1.4 01:27:41 10° WNW 01:31:39 47° SSW 01:32:54 35° SSE visible
28 Aug 1.9 01:17:20 10° W 01:21:06 34° SSW 01:23:08 21° SSE visible
